Location: Maccacari
(45.1333°N, 11.1333°E)
Time: 14:58:31
(UTC+00:00)

S-56A Canister/Altair - Pass Details

Date: 22 January 2021
Orbit: 631 x 2501 km, 38.9° (Epoch: 01 March)

Event Time Altitude Azimuth Distance (km) Brightness Sun altitude
Rises 02:06:07 0° 225° (SW) 2,970 - -48.5°
Reaches altitude 10° 02:08:49 10° 210° (SSW) 2,006 - -48.1°
Maximum altitude 02:12:19 23° 157° (SSE) 1,355 - -47.5°
Drops below altitude 10° 02:16:02 10° 105° (ESE) 2,137 - -46.9°
Exits shadow 02:17:41 - 96° (E) 2,718 10.9 -46.6°
Sets 02:19:00 0° 91° (E) 3,218 11.4 -46.4°
